Location: Olda
(45.8833°N, 9.5500°E)
Time: 15:32:21
(UTC+00:00)

Cosmos 2333 Rocket - Pass Details

Date: 03 March 2021
Orbit: 837 x 864 km, 70.8° (Epoch: 11 April)

Event Time Altitude Azimuth Distance (km) Brightness Sun altitude
Rises 18:46:36 0° 186° (S) 3,385 5.3 -17.3°
Reaches altitude 10° 18:49:06 10° 180° (S) 2,458 4.5 -17.8°
Maximum altitude 18:54:28 46° 108° (ESE) 1,124 2.4 -18.7°
Drops below altitude 10° 18:59:54 10° 37° (NE) 2,491 4.4 -19.6°
Sets 19:02:27 0° 32° (NNE) 3,436 5.2 -20.0°
